Uncategorized

2021 Ratings: SEC Red 2

Wooo, finally getting to some ratings from this past week.

Girls Adjustment: -13
Boys Adjustment: -16

GradeNameTimeTeamRating
10Rachel Forsyth18:17.3Ann Arbor Pioneer158.6
12Sarah Forsyth18:41.9Ann Arbor Pioneer150.4
11Emily Cooper18:55.5Ann Arbor Pioneer145.8
12Cookie Baugh19:03.9Ann Arbor Pioneer143.0
12Maddie Stern19:07.6Saline141.8
12Madi Wood19:22.9Saline136.7
9Alena Blumberg19:30.6Dexter134.1
11Mia Rogan19:33.1Saline133.3
12Charlotte Batra19:39.3Ann Arbor Pioneer131.2
11Natalie Kessler19:42.5Ann Arbor Skyline130.2
10Laney Alig19:46.8Saline128.7
11Caroline Vance19:48.8Ann Arbor Skyline128.1
9Mackenzie Sellenraad19:56.7Saline125.4
12Lydia Alig20:05.9Saline122.4
12Amanda McGill20:10.3Dexter120.9
9Sienna Snyder20:13.0Saline120.0
9Lucinda Paliani20:19.7Ann Arbor Huron117.8
10Kate Varitek20:21.6Dexter117.1
10Viktoria Bloniarz20:31.0Monroe114.0
9Grace Roth20:38.0Saline111.7
11Aubrey Stager20:39.4Saline111.2
9Corynn Gady20:39.8Saline111.1
11Lydia Cocciolone20:42.2Ann Arbor Skyline110.3
11Annalisa DeGuzman20:55.2Ann Arbor Skyline105.9
11Allison Nutt20:59.0Ann Arbor Pioneer104.7
11Rachel Overgaard21:07.4Ann Arbor Huron101.9
10Sonya Shelgikar21:09.5Ann Arbor Huron101.2
9Annabel O’Haver21:23.7Dexter96.4
12Ashley Mitchell21:30.9Dexter94.0
12Hannah McComas21:31.4Dexter93.9
12Bridgette Dudley21:38.0Monroe91.7
10Celia Begosso21:41.1Ann Arbor Skyline90.6
12Claire Endres21:44.4Saline89.5
9Abby Roth21:48.6Saline88.1
10Nancy Gage21:53.3Saline86.6
10Lucy Woehlke22:06.1Saline82.3
12Annissa Sisson22:06.2Dexter82.3
9Madison Rogan22:07.5Saline81.8
9Ayla Balazer22:09.3Ann Arbor Skyline81.2
12Caitlyn Donnelly22:10.6Ann Arbor Skyline80.8
11Grace Finley22:13.2Monroe79.9
12Meghan McGill22:15.9Dexter79.0
9Clara Peikert22:21.1Ann Arbor Pioneer77.3
11Quinn Hilla22:26.4Dexter75.5
11Leah White22:31.8Ann Arbor Skyline73.7
11Miranda Nielsen22:33.4Ann Arbor Skyline73.2
11Morgan Kay22:33.7Monroe73.1
11Emily Ma22:41.5Ann Arbor Huron70.5
10Bailey Burt22:45.9Saline69.0
9Jaya Shah22:47.5Ann Arbor Huron68.5
11Mia Solomon22:48.4Ann Arbor Huron68.2
9Avery Lawrence22:54.0Dexter66.3
11Melanie Macias22:57.9Ypsilanti Lincoln65.0
9Lizzie Thibeault22:59.7Saline64.4
10Rebecca Rummel23:06.8Saline62.1
11Fiona Shangguan23:10.5Ann Arbor Skyline60.8
10Eleanor Vogel23:16.7Ann Arbor Pioneer58.8
11Antonia Bruckman23:20.6Dexter57.5
11Naomi Kaczor23:20.8Ann Arbor Pioneer57.4
12Emma Hilbert23:29.2Ann Arbor Pioneer54.6
9Addison Streetman23:31.7Dexter53.8
11Elizabeth Beck23:35.8Ann Arbor Skyline52.4
11Maya Goncalves23:36.0Ypsilanti Lincoln52.3
12Maekayla Rice23:37.2Saline51.9
11Kiera Tuttle23:38.8Saline51.4
11Samantha Sexton23:44.2Temperance Bedford49.6
10Anneliese Jones23:50.1Ann Arbor Pioneer47.6
10Serena O’Brien23:50.2Ann Arbor Skyline47.6
10Jaya Boggess23:51.2Ann Arbor Pioneer47.3
9Anika Hill23:55.8Temperance Bedford45.7
9Kendra Bogan23:59.0Ann Arbor Huron44.7
10Avery Bogdasarian24:02.2Saline43.6
9Reese Oberski24:08.9Temperance Bedford41.4
9Lucy Pike24:10.7Ann Arbor Pioneer40.8
12Mari Park24:14.0Ann Arbor Huron39.7
12Margaret Lewis24:18.6Dexter38.1
9Hannah Sisson24:23.7Dexter36.4
9Hadley Feyen24:26.8Ann Arbor Pioneer35.4
11Madeline Hood24:27.1Ann Arbor Pioneer35.3
12Elena Bowman24:27.2Ann Arbor Pioneer35.3
9Olivia Shaieb24:39.5Dexter31.2
11Margriet Poppens24:42.3Ann Arbor Pioneer30.2
12Emma Grill24:57.2Saline25.3
11Claire Stanko24:57.7Ann Arbor Pioneer25.1
11Megan O’Day25:01.5Dexter23.8
10Kate Graydon25:06.8Dexter22.1
9Neah Bloch25:08.4Saline21.5
9Lianne Liu25:09.3Ann Arbor Huron21.2
9Kylie Warner25:10.1Saline21.0
12Hailey Winkelman25:11.1Monroe20.6
11Monica Ristich25:13.8Ann Arbor Pioneer19.7
10Megan Bell25:17.6Ann Arbor Pioneer18.5
12Quinn Fowler25:22.1Monroe17.0
11Taylor Wetherbee25:23.1Saline16.6
12Melanie Valtadoros25:27.5Ann Arbor Pioneer15.2
12Sarah Rosati25:35.0Saline12.7
9Avanti Ganesan25:37.5Ann Arbor Pioneer11.8
10Ashlyn Mydloski25:46.1Monroe9.0
10Caitlin Mertens25:47.4Ypsilanti Lincoln8.5
10Sarah Conley25:47.8Ann Arbor Huron8.4
10Avery Atkins25:48.1Saline8.3
11Julia Mei25:50.9Ann Arbor Skyline7.4
12Kaitlyn Eckermann25:54.9Saline6.0
9Makenzie Weiher25:56.5Temperance Bedford5.5
11Jennifer Gage26:02.4Saline3.5
12Breana Austin26:08.2Saline1.6
9Sienna Trier26:12.2Saline0.3

GradeNameTimeTeamRating
12Owen Johnson16:16.4Ann Arbor Pioneer199.9
11Luke Butler16:29.4Monroe195.5
11Nicolas Fry16:39.7Ann Arbor Skyline192.1
12Max Pfeiffer16:40.6Saline191.8
10Brandon Anderson16:45.1Dexter190.3
12Matt Ruud16:46.7Ann Arbor Pioneer189.8
11Jason Whitton17:00.2Saline185.3
10Luke Suliman17:00.7Ann Arbor Skyline185.1
12James Harrison17:01.0Saline185.0
10Vincent Peterson S…17:02.1Ann Arbor Pioneer184.6
11Roman Cortina17:07.1Ann Arbor Pioneer183.0
12Andrew Stern17:11.7Saline181.4
12Jordan Ratliff17:14.2Ypsilanti Lincoln180.6
10Truman Johnson17:15.0Saline180.3
12Josh Lamb17:19.4Dexter178.9
12Adam Hauser17:21.5Dexter178.2
12Samuel Kulczak17:22.0Saline178.0
12Alexander Ortiz17:26.2Temperance Bedford176.6
12Lev Nakamura17:29.8Ann Arbor Huron175.4
11Owen Ackerman17:30.8Dexter175.1
9Chris Anderson17:36.1Ann Arbor Pioneer173.3
11Samuel Jackson17:38.1Saline172.6
10Eric Overdier17:40.0Ann Arbor Pioneer172.0
10Aaron Sterken17:43.8Ann Arbor Pioneer170.7
12Mason Kipley17:44.2Saline170.6
11Chase Klapthor17:45.1Ann Arbor Pioneer170.3
11Thomas Kerber17:46.9Ann Arbor Pioneer169.7
12Collin Balla17:49.1Temperance Bedford169.0
12Peter Florence17:56.0Ann Arbor Pioneer166.7
11Wade Cunningham17:58.3Ann Arbor Pioneer165.9
11Alex Hoffman17:59.8Dexter165.4
11Christopher Van Lent18:06.5Ann Arbor Skyline163.2
12Jadon Sterken18:06.7Ann Arbor Pioneer163.1
11Adam Bigelow18:08.3Ann Arbor Huron162.6
11Henry LiPuma18:10.7Ann Arbor Pioneer161.8
12Alex Apetroaei18:11.5Monroe161.5
11Andrew Grier18:12.4Ann Arbor Pioneer161.2
9Walker Brose18:13.1Ann Arbor Huron161.0
12Griffin Bentley18:14.0Dexter160.7
12Hayden Clarke18:23.3Saline157.6
9Scott Smith18:27.6Dexter156.1
9Caleb Snyder18:27.6Dexter156.1
10Blake Mahler18:27.7Saline156.1
10Mason Jett18:29.8Ann Arbor Skyline155.4
11Shane Pitcher18:31.1Saline155.0
10Joey Stevenson18:31.6Ann Arbor Pioneer154.8
11Joshua Gagne18:32.5Temperance Bedford154.5
12Aditya Sesham18:32.9Ypsilanti Lincoln154.4
11Gabe Sweat18:34.3Monroe153.9
10Tobias Tang18:37.9Ann Arbor Pioneer152.7
11Stewart Berryhill18:38.7Saline152.4
10Gabe Bock18:39.4Temperance Bedford152.2
12Luke Swanger18:39.8Saline152.1
12Zachary Sawin18:40.9Dexter151.7
12Preston Ulery18:42.3Temperance Bedford151.2
10Ben Botkin18:45.7Ann Arbor Pioneer150.1
10Gabe Sanborn18:46.0Ann Arbor Pioneer150.0
9Kiran Parekh18:46.1Ann Arbor Pioneer150.0
11Ismael Sanantonio18:47.1Ann Arbor Pioneer149.6
11Andrew McNally18:47.2Saline149.6
9Nicholas Balla18:47.3Temperance Bedford149.6
11Eric VonBargen18:49.6Ann Arbor Skyline148.8
9Aidan Ortiz18:52.8Temperance Bedford147.7
12Tyler Thibeault18:54.3Saline147.2
11Gavin Burt18:54.7Saline147.1
11Dominik White18:54.7Saline147.1
11Landon Wissink18:55.3Saline146.9
10Maxx Adams18:55.6Monroe146.8
12Andon Lewandowski18:58.7Ypsilanti Lincoln145.8
11Owen Liepman19:01.1Saline145.0
12Jack Terris19:02.3Saline144.6
10Andrew Foshag19:03.4Monroe144.2
9Jordan Bunce19:04.3Temperance Bedford143.9
11Kaden Jensen19:04.8Dexter143.7
12Ryan Prielipp19:06.6Temperance Bedford143.1
10Lucas Weintraub19:08.2Ann Arbor Huron142.6
11Aidan Behmer19:09.7Ann Arbor Huron142.1
12Cooper Franklin19:10.5Ann Arbor Pioneer141.8
11Daniel Rhoades19:13.2Monroe140.9
12Grant Yeager19:13.7Temperance Bedford140.8
9Aiden DePue19:14.6Temperance Bedford140.5
11Rylan Teddy19:16.4Dexter139.9
10Ewan Lemens19:17.8Ann Arbor Pioneer139.4
11Elijah Routson19:19.7Saline138.8
11Jack Zaske19:22.9Saline137.7
11Nicolas Jiang19:23.9Ann Arbor Huron137.4
11Kyle Sutton19:27.5Dexter136.2
10Sam Gibson19:32.2Dexter134.6
9Josiah Koch19:32.7Saline134.4
12Andy Jordan19:33.8Dexter134.1
9William Rosales19:34.7Saline133.8
12Nathan Mertens19:35.3Ypsilanti Lincoln133.6
10Henry Beard19:39.8Ann Arbor Huron132.1
10Nathan Leung19:40.2Ann Arbor Huron131.9
10Carter Hill19:41.4Dexter131.5
11Soren Nielsen19:41.6Ann Arbor Skyline131.5
9Joel Miklosovic19:42.0Saline131.3
9Leland Weiser19:49.6Ann Arbor Skyline128.8
10Will Kletzka19:54.9Dexter127.0
10Wyatt Behrendt19:55.4Ypsilanti Lincoln126.9
12Nick Parran19:56.6Monroe126.5
11Devin Saxon19:56.9Ann Arbor Huron126.4
12Chris Smith19:57.6Saline126.1
12Taiga Yoshida19:57.7Ann Arbor Huron126.1
9Braxon Lake19:57.9Temperance Bedford126.0
9Jonah Kraft19:58.4Ann Arbor Huron125.9
10Varun Yalavarthi19:59.5Ann Arbor Huron125.5
9Anthony Baker19:59.8Dexter125.4
9Sam Austin20:00.7Ann Arbor Skyline125.1
11Anthony Kruszka20:02.0Temperance Bedford124.7
11Matt Dombrowski20:02.0Ann Arbor Pioneer124.7
10Owen Nesbit20:02.5Ann Arbor Pioneer124.5
12Joe Williams20:04.2Ann Arbor Pioneer123.9
10Chris Stein20:04.3Monroe123.9
10Evan Richert20:12.4Ypsilanti Lincoln121.2
9Thomas Endres20:16.4Saline119.9
9Sawyer Ulery20:17.0Temperance Bedford119.7
12Carter Bankowski20:17.8Saline119.4
11Mike Dombrowski20:18.0Ann Arbor Pioneer119.3
10Ethan Umberger20:18.2Saline119.3
10Liam Ridenour20:23.6Ann Arbor Huron117.5
9Christian Rice20:25.5Saline116.8
11Zack Hildebrandt20:26.0Ann Arbor Huron116.7
11Kirilo Pereklita20:26.1Ann Arbor Huron116.6
9Collin Eckermann20:27.4Saline116.2
11Landon Wilson20:30.5Dexter115.2
9Eli Hinkleman20:30.9Temperance Bedford115.0
10Jack Burin20:32.7Dexter114.4
10Aldus Yun20:33.5Ann Arbor Pioneer114.2
10Adrik Ruch20:34.8Temperance Bedford113.7
12Louie Benard20:37.1Ann Arbor Huron113.0
10Ethan Thomas20:39.2Temperance Bedford112.3
10Wyatt Hockley20:39.7Ann Arbor Pioneer112.1
11Gregor Morton20:40.8Saline111.7
12Miles Przybylski20:44.6Temperance Bedford110.5
10Yuma Tsubouchi20:45.8Dexter110.1
12Grey Johnson20:49.5Monroe108.8
12Thomas Schorer20:49.9Ann Arbor Huron108.7
12Elliott Varnum20:50.8Ann Arbor Pioneer108.4
10Julian Snelling20:51.5Ann Arbor Pioneer108.2
9Guy LaBrecque21:00.8Saline105.1
12Justin Lim21:00.8Ann Arbor Pioneer105.1
9Alex Nemecek21:10.8Ann Arbor Skyline101.7
10Evan Marsee21:12.4Ann Arbor Pioneer101.2
9Luke Ankeney21:14.9Ann Arbor Pioneer100.4
9Ashe Baskey21:17.6Ann Arbor Huron99.5
10Victor Heskia21:18.6Ann Arbor Huron99.1
9Bryce Bales21:20.3Dexter98.6
10Cameron Sindlinger21:23.6Ypsilanti Lincoln97.5
11Will O’Haver21:24.7Dexter97.1
12Thomas DesRosiers21:30.9Dexter95.0
10Johnathan Ball21:33.0Temperance Bedford94.3
9Jonas Enriquez21:37.3Temperance Bedford92.9
10Carter Verkerk21:40.4Saline91.9
10Luke Lindsay21:40.6Monroe91.8
9Alex Watson21:41.3Dexter91.6
12Hayden Schad21:49.6Saline88.8
11Matais Gonzales21:49.6Ann Arbor Pioneer88.8
11Aiden Burke21:52.9Saline87.7
12Brandon Lin21:54.4Ann Arbor Huron87.2
10Jack Durivage21:56.9Temperance Bedford86.4
11Ted Stanley21:58.4Ann Arbor Pioneer85.9
10Koen Lanker21:59.3Saline85.6
11Colin Alexander22:00.4Saline85.2
10Elijah Ames22:00.7Saline85.1
9Jordan Marsh22:03.9Saline84.0
12Andrew Petik22:09.5Dexter82.2
11Mason Grann22:09.9Dexter82.0
9Marty Watson22:10.5Dexter81.8
10Charlie Munson22:11.3Dexter81.6
12Carter Miller22:11.5Temperance Bedford81.5
9Matthew McGill22:17.3Dexter79.6
11Jett Roles22:23.1Saline77.6
10Chris Coffer22:30.6Dexter75.1
9Maximo D’Andrea22:35.7Ann Arbor Huron73.4
10Alex Fruth22:41.9Saline71.4
9Ryan Friedholm22:43.4Saline70.9
10Roman Bonfiglio22:43.9Saline70.7
11Seth McComas22:50.4Dexter68.5
11Nathan Robke22:51.0Dexter68.3
9Graham Barnett22:54.3Ann Arbor Huron67.2
9Blake Cabble23:00.0Dexter65.3
9Andrew Irgang23:05.2Saline63.6
12Adi Balaji23:05.6Ann Arbor Skyline63.5
9Patrick (PJ) Carty23:05.7Dexter63.4
9Xingzhi(Tom) Tan23:09.0Ann Arbor Huron62.3
12Ashton Palm23:13.0Dexter61.0
9Matthew Casavant23:16.1Dexter60.0
9Xander Shadley23:19.0Ypsilanti Lincoln59.0
10Nicholas Bennett23:24.4Saline57.2
11Landon Bush23:24.6Saline57.1
10Harold Crowner23:24.9Saline57.0
11Sean Kavanaugh23:29.9Saline55.4
9Kiren Sankaran23:34.7Saline53.8
11Gael Borges23:40.5Ann Arbor Huron51.8
9Soren Stone-Palmqu…23:42.6Ann Arbor Huron51.1
11Yuri Carnino23:46.4Saline49.9
10Adison Din23:50.0Dexter48.7
11David Dornoff24:04.7Dexter43.8
9Cameron Russell24:05.3Ann Arbor Pioneer43.6
9Brant Maley24:06.9Ann Arbor Pioneer43.0
10Charlie Lutz24:07.1Dexter43.0
9Aidan Petik24:08.3Dexter42.6
9Demetre Vlahos Cor…24:08.9Ann Arbor Pioneer42.4
9Logan Kipley24:23.4Saline37.5
10Andrew Wehr24:31.3Saline34.9
10Jakob Andrews24:34.0Ypsilanti Lincoln34.0
12Aaron Breese24:38.7Saline32.4
9Jack Robichaud24:41.5Ann Arbor Skyline31.5
10Aidan Gadepalli24:41.6Ann Arbor Huron31.5
10Jack Suplica25:09.3Temperance Bedford22.2
10Jaxson Cicotte25:09.7Dexter22.1
9Rex Bajcz25:21.8Ann Arbor Pioneer18.1
9Jack Scarpati25:27.9Saline16.0
10Josh Johnson25:29.6Dexter15.5
12Alexander Zervogia…25:31.7Saline14.8
10Jack Hollingsworth25:32.8Ann Arbor Pioneer14.4
9Adrian Sieh25:36.1Saline13.3
10Aidan Sutherland25:38.0Saline12.7
9Wesley Jenkins25:55.4Ann Arbor Skyline6.9

Leave a Reply

Fill in your details below or click an icon to log in:

WordPress.com Logo

You are commenting using your WordPress.com account. Log Out /  Change )

Google photo

You are commenting using your Google account. Log Out /  Change )

Twitter picture

You are commenting using your Twitter account. Log Out /  Change )

Facebook photo

You are commenting using your Facebook account. Log Out /  Change )

Connecting to %s